NORTHERN QUEENS  -  Air Quality Alert Air Quality Alert        SOUTHERN QUEENS  -  Air Quality Alert Air Quality Alert      

Active alerts

Northern Queens
  Details for Northern Queens Air Quality Alert
Southern Queens
  Details for Southern Queens Air Quality Alert


WXM80 ListenWXM80 Stop

You find our weather info also at:

UK Metoffice

WeatherCloud

Weather Underground

Northeastern Weather Network

AWEKAS

Citizen Weather Observer Program (CWOP)

HAMweather, WeatherForYou, PWS Weather


Weather Underground History page Text

Daily Summary for October 24, 2017 Units:  Metric    English   Both
« Previous Day
Next Day »
Daily Weekly Monthly Yearly Custom
  High: Low: Average:
Temperature: 24.2 °C 19.3 °C 21.1 °C
Dew Point: 20.8 °C 18.6 °C 19.6 °C
Humidity: 98 % 80 % 91 %
Wind Speed: 22.7 km/h 0 km/h 7.7 km/h
Wind Gust: 50 km/h - -
Wind:- - South
Pressure: 1016.1 hPa 1007.3 hPa -
Precipitation: 59.44 mm    
Historical Graphs
 
 
Tabular Data for October 24, 2017
Time Temperature Dew Point Pressure Wind Wind Speed Wind Gust Humidity Rainfall Rate (Hourly)
00:01 21.3 °C 18.8 °C 1016.1 hPa SE 4.7 km/h 20.9 km/h 86 % 0 mm
00:06 21.3 °C 18.9 °C 1015.8 hPa SSE 9.7 km/h 18.5 km/h 86 % 0 mm
00:11 21.3 °C 18.7 °C 1015.8 hPa SE 15.9 km/h 20.9 km/h 85 % 0 mm
00:16 21.4 °C 18.8 °C 1015.5 hPa SSE 11.6 km/h 24.1 km/h 85 % 0 mm
00:21 21.4 °C 18.8 °C 1015.8 hPa SSE 12.1 km/h 18.5 km/h 85 % 0 mm
00:26 21.4 °C 18.9 °C 1015.8 hPa South 8.4 km/h 14.8 km/h 86 % 0 mm
00:31 21.4 °C 18.8 °C 1015.5 hPa SE 9.3 km/h 18.5 km/h 85 % 0 mm
00:36 21.4 °C 18.8 °C 1015.5 hPa South 3.2 km/h 7.4 km/h 85 % 0 mm
00:41 21.3 °C 18.7 °C 1015.1 hPa SE 9.2 km/h 14.8 km/h 85 % 0 mm
00:52 21.3 °C 18.8 °C 1015.5 hPa SE 7.7 km/h 11.3 km/h 86 % 0 mm
00:57 21.3 °C 18.8 °C 1015.5 hPa South 5.1 km/h 16.7 km/h 86 % 0 mm
01:02 21.2 °C 18.8 °C 1015.5 hPa SSE 6.4 km/h 13 km/h 86 % 0 mm
01:07 21.2 °C 18.8 °C 1015.8 hPa SSW 12.1 km/h 24.1 km/h 86 % 0 mm
01:12 21.2 °C 18.9 °C 1015.5 hPa SSW 18.5 km/h 31.5 km/h 87 % 0 mm
01:17 21.2 °C 18.9 °C 1015.5 hPa SE 9.5 km/h 24.1 km/h 87 % 0 mm
01:22 21.2 °C 18.9 °C 1015.1 hPa SSE 6.9 km/h 11.1 km/h 87 % 0 mm
01:27 21.2 °C 18.9 °C 1015.5 hPa SE 10.3 km/h 29.6 km/h 87 % 0 mm
01:32 21.2 °C 18.9 °C 1015.5 hPa SSW 8.9 km/h 16.1 km/h 87 % 0 mm
01:37 21.1 °C 18.9 °C 1015.5 hPa SE 2.4 km/h 14.8 km/h 87 % 0 mm
01:42 21.1 °C 18.9 °C 1015.5 hPa SE 8.7 km/h 27.8 km/h 87 % 0 mm
01:44 21.1 °C 18.9 °C 1015.1 hPa South 3.2 km/h 20.4 km/h 87 % 0 mm
01:49 21.1 °C 18.9 °C 1015.5 hPa South 6.3 km/h 13 km/h 87 % 0 mm
01:54 21.1 °C 18.8 °C 1015.5 hPa SE 7.1 km/h 13 km/h 87 % 0 mm
01:59 21 °C 18.9 °C 1015.5 hPa South 8.7 km/h 13 km/h 88 % 0 mm
02:04 21 °C 18.9 °C 1015.5 hPa South 6.8 km/h 16.7 km/h 88 % 0 mm
02:09 20.9 °C 18.9 °C 1015.5 hPa South 6.9 km/h 9.7 km/h 88 % 0 mm
02:14 20.9 °C 18.8 °C 1015.5 hPa South 8 km/h 13 km/h 88 % 0 mm
02:19 20.9 °C 18.8 °C 1015.5 hPa SSE 5.8 km/h 14.5 km/h 88 % 0 mm
02:24 20.8 °C 18.9 °C 1015.5 hPa SSW 8.4 km/h 18.5 km/h 89 % 0 mm
02:29 20.8 °C 18.9 °C 1015.5 hPa SSE 5.6 km/h 18.5 km/h 89 % 0 mm
02:34 20.8 °C 18.9 °C 1015.1 hPa SSE 5.6 km/h 16.7 km/h 89 % 0 mm
02:40 20.8 °C 18.9 °C 1015.1 hPa SSE 14.8 km/h 25.9 km/h 89 % 0 mm
02:45 20.7 °C 18.8 °C 1015.1 hPa South 3.1 km/h 14.8 km/h 89 % 0 mm
02:50 20.7 °C 19 °C 1014.8 hPa SE 5.1 km/h 18.5 km/h 90 % 0 mm
02:55 20.7 °C 19 °C 1014.8 hPa South 0.5 km/h 3.7 km/h 90 % 0 mm
03:00 20.7 °C 19 °C 1014.8 hPa SE 2.4 km/h 29.6 km/h 90 % 0 mm
03:05 20.7 °C 19.2 °C 1014.8 hPa SSE 6.8 km/h 14.5 km/h 91 % 0 mm
03:10 20.7 °C 19.2 °C 1014.4 hPa SSE 4.2 km/h 18.5 km/h 91 % 0 mm
03:15 20.7 °C 19.2 °C 1014.4 hPa SE 9.5 km/h 22.2 km/h 91 % 0 mm
03:20 20.7 °C 19.2 °C 1014.1 hPa SSE 8.7 km/h 16.1 km/h 91 % 0 mm
03:25 20.7 °C 19.2 °C 1014.1 hPa South 9.5 km/h 22.2 km/h 91 % 0 mm
03:30 20.7 °C 19.2 °C 1013.8 hPa East 5.8 km/h 5.8 km/h 91 % 0 mm
03:35 20.7 °C 19.2 °C 1013.4 hPa SE 9.8 km/h 18.5 km/h 91 % 0 mm
03:40 20.6 °C 19.1 °C 1013.1 hPa SSE 4.2 km/h 14.5 km/h 91 % 0 mm
03:45 20.6 °C 19.1 °C 1013.1 hPa SSE 7.4 km/h 20.4 km/h 91 % 0 mm
03:50 20.6 °C 19.1 °C 1013.1 hPa SSW 0.2 km/h 18.5 km/h 91 % 0 mm
03:56 20.5 °C 19.2 °C 1013.1 hPa SSE 11.3 km/h 22.5 km/h 92 % 0 mm
04:01 20.5 °C 19.2 °C 1013.1 hPa SSW 3.5 km/h 11.1 km/h 92 % 0 mm
04:06 20.5 °C 19.2 °C 1012.8 hPa South 4.8 km/h 19.3 km/h 92 % 0 mm
04:11 20.5 °C 19.2 °C 1013.1 hPa South 15 km/h 29.6 km/h 92 % 0 mm
04:16 20.5 °C 19.2 °C 1012.8 hPa SE 5 km/h 16.7 km/h 92 % 0 mm
04:21 20.5 °C 19.2 °C 1012.8 hPa SE 3.9 km/h 7.4 km/h 92 % 0 mm
04:26 20.4 °C 19.1 °C 1012.4 hPa SSE 8 km/h 18.5 km/h 92 % 0 mm
04:32 20.5 °C 19.2 °C 1012.4 hPa SSE 10.3 km/h 22.2 km/h 92 % 0 mm
04:37 20.5 °C 19.2 °C 1012.4 hPa SSE 5.5 km/h 11.1 km/h 92 % 0 mm
04:42 20.5 °C 19.2 °C 1012.1 hPa SSE 8.4 km/h 13 km/h 92 % 0 mm
04:47 20.6 °C 19.2 °C 1012.1 hPa South 9.5 km/h 29.6 km/h 92 % 0 mm
04:52 20.7 °C 19.3 °C 1012.1 hPa SSW 10.3 km/h 18.5 km/h 92 % 0 mm
04:57 20.7 °C 19.2 °C 1011.7 hPa ESE 15 km/h 24.1 km/h 91 % 0 mm
05:02 20.7 °C 19.2 °C 1011.4 hPa SSE 6.4 km/h 35.2 km/h 91 % 0 mm
05:07 20.8 °C 19.3 °C 1011.4 hPa East 10.1 km/h 18.5 km/h 91 % 0 mm
05:12 20.8 °C 19.3 °C 1011.4 hPa South 10.3 km/h 33.3 km/h 91 % 0 mm
05:17 20.9 °C 19.4 °C 1011.4 hPa South 14.6 km/h 17.7 km/h 91 % 0 mm
05:22 20.9 °C 19.4 °C 1011.7 hPa SSE 7.4 km/h 20.4 km/h 91 % 0 mm
05:28 20.9 °C 19.4 °C 1011.7 hPa SE 12.4 km/h 20.9 km/h 91 % 0 mm
05:33 21 °C 19.5 °C 1011.7 hPa South 8.4 km/h 25.9 km/h 91 % 0 mm
05:38 21.1 °C 19.6 °C 1011.7 hPa SSE 9.7 km/h 29.6 km/h 91 % 0 mm
05:43 21.2 °C 19.4 °C 1012.1 hPa SSE 14.3 km/h 25.9 km/h 90 % 0 mm
05:48 21.2 °C 19.5 °C 1012.1 hPa SE 9.5 km/h 22.2 km/h 90 % 0 mm
05:53 21.2 °C 19.5 °C 1012.1 hPa South 10.3 km/h 25.9 km/h 90 % 0 mm
05:58 21.3 °C 19.4 °C 1012.1 hPa SE 15.8 km/h 27.8 km/h 89 % 0 mm
06:03 21.4 °C 19.5 °C 1012.1 hPa SSE 9.5 km/h 25.9 km/h 89 % 0 mm
06:08 21.4 °C 19.6 °C 1012.1 hPa SE 6.9 km/h 14.8 km/h 89 % 0 mm
06:13 21.5 °C 19.6 °C 1012.1 hPa SSE 15.6 km/h 22.2 km/h 89 % 0 mm
06:18 21.5 °C 19.4 °C 1012.1 hPa South 12.2 km/h 16.7 km/h 88 % 0 mm
06:23 21.5 °C 19.4 °C 1011.7 hPa SSE 7.1 km/h 24.1 km/h 88 % 0 mm
06:29 21.6 °C 19.5 °C 1012.1 hPa South 6 km/h 31.5 km/h 88 % 0 mm
06:34 21.5 °C 19.4 °C 1011.7 hPa SSE 14.2 km/h 20.4 km/h 88 % 0 mm
06:39 21.6 °C 19.5 °C 1011.7 hPa SSE 11.4 km/h 29.6 km/h 88 % 0 mm
06:44 21.6 °C 19.5 °C 1011.4 hPa ESE 13 km/h 29.6 km/h 88 % 0 mm
06:49 21.6 °C 19.5 °C 1011.4 hPa SSE 17.7 km/h 33.3 km/h 88 % 0 mm
06:54 21.6 °C 19.5 °C 1011.1 hPa SE 9.7 km/h 16.7 km/h 88 % 0 mm
06:59 21.6 °C 19.6 °C 1011.1 hPa SSE 5.5 km/h 27.8 km/h 88 % 0 mm
07:04 21.6 °C 19.6 °C 1011.1 hPa SE 10.5 km/h 22.2 km/h 88 % 0 mm
07:09 21.6 °C 19.6 °C 1011.1 hPa ESE 14.6 km/h 22.5 km/h 88 % 0 mm
07:15 21.6 °C 19.6 °C 1011.1 hPa SSW 18.8 km/h 38.9 km/h 88 % 0 mm
07:20 21.7 °C 19.6 °C 1010.7 hPa SE 12.2 km/h 29.6 km/h 88 % 0 mm
07:25 21.7 °C 19.6 °C 1011.1 hPa South 6.6 km/h 35.2 km/h 88 % 0 mm
07:30 21.7 °C 19.6 °C 1011.1 hPa South 12.9 km/h 32.2 km/h 88 % 0 mm
07:35 21.6 °C 19.6 °C 1011.1 hPa SSW 16.1 km/h 29.6 km/h 88 % 0 mm
07:40 21.7 °C 19.6 °C 1011.4 hPa South 6.6 km/h 16.7 km/h 88 % 0 mm
07:45 21.7 °C 19.6 °C 1011.4 hPa SSW 8.9 km/h 20.4 km/h 88 % 0 mm
07:50 21.7 °C 19.6 °C 1011.4 hPa SE 11.9 km/h 20.4 km/h 88 % 0 mm
07:55 21.6 °C 19.7 °C 1011.7 hPa South 19.5 km/h 27.8 km/h 89 % 0 mm
08:00 21.5 °C 19.8 °C 1011.7 hPa SSE 9.7 km/h 29 km/h 90 % 0 mm
08:05 21.3 °C 19.8 °C 1011.7 hPa SSE 11.1 km/h 16.7 km/h 91 % 0 mm
08:10 21.2 °C 19.6 °C 1011.7 hPa SSE 14.5 km/h 20.9 km/h 91 % 0.25 mm
08:15 21.1 °C 19.7 °C 1011.7 hPa SSE 8.7 km/h 9.3 km/h 92 % 0.25 mm
08:21 21 °C 19.7 °C 1011.7 hPa SSE 8 km/h 24.1 km/h 92 % 0 mm
08:26 21 °C 19.7 °C 1011.7 hPa SSE 9.7 km/h 20.9 km/h 92 % 0 mm
08:31 21 °C 19.8 °C 1011.7 hPa SSE 11.3 km/h 25.7 km/h 93 % 0 mm
08:36 21.1 °C 19.9 °C 1012.1 hPa SSE 9.7 km/h 22.5 km/h 93 % 0 mm
08:41 21.1 °C 19.9 °C 1012.1 hPa SSE 9.7 km/h 35.4 km/h 93 % 0 mm
08:46 21.2 °C 20 °C 1011.7 hPa South 9.7 km/h 24.1 km/h 93 % 0 mm
08:51 21.3 °C 19.9 °C 1011.7 hPa SSE 14.5 km/h 35.4 km/h 92 % 0 mm
08:56 21.3 °C 20 °C 1011.4 hPa SSE 14.5 km/h 37 km/h 92 % 0 mm
09:01 21.4 °C 19.8 °C 1011.7 hPa South 8 km/h 24.1 km/h 91 % 0.25 mm
09:06 21.5 °C 19.9 °C 1011.4 hPa South 9.5 km/h 31.5 km/h 91 % 0.25 mm
09:11 21.5 °C 19.8 °C 1011.7 hPa SE 7.6 km/h 16.7 km/h 90 % 0 mm
09:16 21.5 °C 19.8 °C 1011.7 hPa SE 4.5 km/h 8 km/h 90 % 0 mm
09:21 21.5 °C 19.8 °C 1011.7 hPa SSW 8.9 km/h 22.2 km/h 90 % 0 mm
09:26 21.6 °C 19.8 °C 1011.4 hPa SSE 7.9 km/h 17.7 km/h 90 % 0 mm
09:31 21.6 °C 19.8 °C 1011.4 hPa SSW 7.1 km/h 18.5 km/h 90 % 0 mm
09:36 21.7 °C 19.8 °C 1011.4 hPa SE 8.7 km/h 18.5 km/h 89 % 0 mm
09:41 21.8 °C 19.9 °C 1011.4 hPa ESE 6.3 km/h 14.5 km/h 89 % 0 mm
09:46 21.9 °C 20.1 °C 1011.4 hPa SE 6.8 km/h 14.5 km/h 89 % 0 mm
09:51 22.1 °C 20.2 °C 1011.4 hPa SSW 7.9 km/h 16.7 km/h 89 % 0 mm
09:56 22.3 °C 20.2 °C 1011.1 hPa SE 6.8 km/h 14.8 km/h 88 % 0 mm
10:01 22.5 °C 20.2 °C 1011.4 hPa SSE 10.9 km/h 25.9 km/h 87 % 0 mm
10:06 22.6 °C 20.1 °C 1011.4 hPa SSE 11.3 km/h 24.1 km/h 86 % 0 mm
10:11 22.6 °C 19.9 °C 1011.4 hPa SSE 11.1 km/h 31.5 km/h 85 % 0 mm
10:16 22.7 °C 20.1 °C 1011.4 hPa South 4.8 km/h 18.5 km/h 85 % 0 mm
10:21 22.7 °C 20.1 °C 1011.4 hPa SSW 7.9 km/h 24.1 km/h 85 % 0 mm
10:26 22.7 °C 20.1 °C 1011.4 hPa SE 7.1 km/h 27.8 km/h 85 % 0 mm
10:32 22.7 °C 20.1 °C 1011.4 hPa South 6.4 km/h 14.8 km/h 85 % 0 mm
10:37 22.7 °C 20.1 °C 1011.4 hPa SW 10.9 km/h 31.5 km/h 85 % 0 mm
10:42 22.7 °C 20 °C 1011.1 hPa South 20.4 km/h 33.3 km/h 85 % 0 mm
10:47 22.6 °C 19.9 °C 1011.1 hPa SE 5.8 km/h 18.5 km/h 85 % 0 mm
10:52 22.5 °C 19.8 °C 1011.1 hPa SSE 15.1 km/h 33.3 km/h 85 % 0 mm
10:57 22.4 °C 19.8 °C 1011.1 hPa SE 15.1 km/h 25.9 km/h 85 % 0 mm
11:02 22.4 °C 20 °C 1011.1 hPa SE 8.5 km/h 25.9 km/h 86 % 0 mm
11:07 22.4 °C 20 °C 1011.1 hPa SSE 5 km/h 27.8 km/h 86 % 0 mm
11:12 22.5 °C 19.8 °C 1011.1 hPa SSW 9.7 km/h 37 km/h 85 % 0 mm
11:17 22.6 °C 19.9 °C 1011.1 hPa SE 12.6 km/h 24.1 km/h 85 % 0 mm
11:22 22.7 °C 20 °C 1011.1 hPa South 10.8 km/h 35.2 km/h 85 % 0 mm
11:27 22.7 °C 20.1 °C 1011.1 hPa ESE 22.7 km/h 42.6 km/h 85 % 0 mm
11:32 22.8 °C 20.1 °C 1010.7 hPa South 8.4 km/h 18.5 km/h 85 % 0 mm
11:37 22.8 °C 20.2 °C 1011.1 hPa SE 7.4 km/h 17.7 km/h 85 % 0 mm
11:42 22.9 °C 20.3 °C 1010.7 hPa SE 6 km/h 18.5 km/h 85 % 0 mm
11:47 23 °C 20.3 °C 1010.7 hPa SSE 5.5 km/h 14.5 km/h 85 % 0 mm
11:52 23.1 °C 20.2 °C 1010.4 hPa South 6 km/h 11.1 km/h 84 % 0 mm
11:57 23.3 °C 20.4 °C 1010.7 hPa SE 13.7 km/h 50 km/h 84 % 0 mm
12:02 23.6 °C 20.6 °C 1010.4 hPa South 7.7 km/h 31.5 km/h 83 % 0 mm
12:07 23.9 °C 20.8 °C 1011.1 hPa South 9.8 km/h 12.9 km/h 83 % 0 mm
12:12 24.1 °C 20.6 °C 1011.1 hPa SE 8 km/h 31.5 km/h 81 % 0 mm
12:17 24.2 °C 20.6 °C 1010.7 hPa SE 5.1 km/h 16.7 km/h 80 % 0 mm
12:22 24.1 °C 20.4 °C 1010.7 hPa South 16.1 km/h 37 km/h 80 % 0 mm
12:27 24 °C 20.6 °C 1010.7 hPa SSE 5.3 km/h 20.4 km/h 81 % 0 mm
12:37 23.9 °C 20.5 °C 1010 hPa South 10.3 km/h 29.6 km/h 81 % 0 mm
12:43 24 °C 20.6 °C 1010 hPa SSW 9.5 km/h 27.8 km/h 81 % 0 mm
12:48 24 °C 20.6 °C 1010 hPa SSE 6.4 km/h 18.5 km/h 81 % 0 mm
12:53 23.9 °C 20.5 °C 1010 hPa SSE 5.6 km/h 20.4 km/h 81 % 0 mm
12:58 23.9 °C 20.5 °C 1010 hPa South 10 km/h 31.5 km/h 81 % 0 mm
13:03 23.9 °C 20.4 °C 1010 hPa SSW 11.1 km/h 25.9 km/h 81 % 0 mm
13:08 23.8 °C 20.6 °C 1010 hPa SSW 11.9 km/h 20.4 km/h 82 % 0 mm
13:13 23.8 °C 20.3 °C 1010 hPa SE 10.5 km/h 19.3 km/h 81 % 0 mm
13:18 23.7 °C 20.4 °C 1009.7 hPa SE 6 km/h 20.4 km/h 82 % 0 mm
13:23 23.7 °C 20.4 °C 1010 hPa SE 8.9 km/h 16.7 km/h 82 % 0 mm
13:28 23.7 °C 20.4 °C 1009.7 hPa SE 9.7 km/h 18.5 km/h 82 % 0 mm
13:33 23.8 °C 20.5 °C 1009.7 hPa SE 9.3 km/h 24.1 km/h 82 % 0 mm
13:38 23.8 °C 20.6 °C 1009.7 hPa SSW 11.9 km/h 27.8 km/h 82 % 0 mm
13:43 23.8 °C 20.6 °C 1009.7 hPa SE 7.1 km/h 12.9 km/h 82 % 0 mm
13:48 23.8 °C 20.5 °C 1009.7 hPa South 13 km/h 27.8 km/h 82 % 0 mm
13:53 23.7 °C 20.6 °C 1009.7 hPa SE 15 km/h 35.2 km/h 83 % 0 mm
13:58 23.5 °C 20.4 °C 1009.7 hPa SE 10.1 km/h 18.5 km/h 83 % 0 mm
14:03 23.3 °C 20.5 °C 1009.4 hPa SSW 8 km/h 13 km/h 84 % 0 mm
14:09 23.2 °C 20.3 °C 1009.4 hPa SSE 19.6 km/h 41.8 km/h 84 % 0 mm
14:14 23 °C 20.3 °C 1009.4 hPa SSE 12.7 km/h 31.5 km/h 85 % 0 mm
14:19 22.7 °C 20.4 °C 1009.7 hPa WSW 10.9 km/h 22.2 km/h 87 % 0.25 mm
14:24 22.2 °C 20.3 °C 1009.4 hPa South 9.3 km/h 27.8 km/h 89 % 0.51 mm
14:29 21.8 °C 20.3 °C 1009.7 hPa SSW 7.4 km/h 14.8 km/h 91 % 1.02 mm
14:34 21.7 °C 20.4 °C 1009.4 hPa SSE 8.4 km/h 18.5 km/h 92 % 1.52 mm
14:39 21.6 °C 20.2 °C 1009.7 hPa SSW 8.4 km/h 22.2 km/h 92 % 2.29 mm
14:44 21.4 °C 20.3 °C 1009.4 hPa South 11.7 km/h 14.8 km/h 93 % 2.79 mm
14:49 21.4 °C 20.2 °C 1009.4 hPa South 11.7 km/h 27.8 km/h 93 % 3.3 mm
14:54 21.3 °C 20.3 °C 1009.4 hPa SSW 4.7 km/h 20.4 km/h 94 % 4.06 mm
14:59 21.2 °C 20.2 °C 1009.4 hPa South 7.4 km/h 13 km/h 94 % 4.57 mm
15:04 21.2 °C 20.2 °C 1009.4 hPa SSW 4.5 km/h 7.4 km/h 94 % 5.08 mm
15:09 21.1 °C 20.1 °C 1009.4 hPa SE 8.4 km/h 16.7 km/h 94 % 5.59 mm
15:14 21.1 °C 20.1 °C 1009.4 hPa SSE 6.9 km/h 11.3 km/h 94 % 5.84 mm
15:19 21.1 °C 20.1 °C 1009.4 hPa South 13.5 km/h 14.8 km/h 94 % 5.84 mm
15:24 21 °C 20.2 °C 1009.7 hPa SE 5.6 km/h 20.4 km/h 95 % 5.84 mm
15:29 20.9 °C 20.1 °C 1009.7 hPa SSW 4.2 km/h 14.8 km/h 95 % 5.33 mm
15:35 20.9 °C 20.1 °C 1009.4 hPa SSW 6.9 km/h 18.5 km/h 95 % 5.08 mm
15:40 20.8 °C 19.9 °C 1009 hPa SSW 4.5 km/h 16.7 km/h 95 % 4.32 mm
15:45 20.7 °C 19.9 °C 1009.4 hPa SSE 10.8 km/h 18.5 km/h 95 % 3.56 mm
15:50 20.7 °C 19.8 °C 1009 hPa SSW 10.3 km/h 25.9 km/h 95 % 3.05 mm
15:51 20.6 °C 19.8 °C 1009.4 hPa SE 6.6 km/h 14.8 km/h 95 % 3.05 mm
15:56 20.6 °C 19.8 °C 1009.7 hPa SSE 2.7 km/h 18.5 km/h 95 % 2.54 mm
16:01 20.5 °C 19.7 °C 1009.7 hPa South 4 km/h 11.1 km/h 95 % 1.78 mm
16:06 20.5 °C 19.7 °C 1010 hPa SSW 6.9 km/h 18.5 km/h 95 % 1.27 mm
16:12 20.4 °C 19.6 °C 1009.7 hPa South 8.4 km/h 18.5 km/h 95 % 0.76 mm
16:17 20.3 °C 19.5 °C 1009.7 hPa SSW 5.5 km/h 18.5 km/h 95 % 0.51 mm
16:22 20.3 °C 19.5 °C 1009.4 hPa South 8 km/h 31.5 km/h 95 % 0.25 mm
16:27 20.3 °C 19.6 °C 1009.4 hPa SE 8 km/h 18.5 km/h 96 % 0.25 mm
16:32 20.2 °C 19.6 °C 1009.4 hPa ESE 10 km/h 18.5 km/h 96 % 0 mm
16:37 20.2 °C 19.6 °C 1009.4 hPa SE 4.8 km/h 9.7 km/h 96 % 0 mm
16:42 20.2 °C 19.6 °C 1009.4 hPa SE 6.8 km/h 19.3 km/h 96 % 0 mm
16:47 20.2 °C 19.5 °C 1009 hPa South 8.4 km/h 22.2 km/h 96 % 0 mm
16:52 20.2 °C 19.5 °C 1009.4 hPa South 6.8 km/h 16.7 km/h 96 % 0 mm
16:57 20.2 °C 19.6 °C 1009 hPa SSW 3.2 km/h 25.9 km/h 96 % 0 mm
17:02 20.3 °C 19.6 °C 1009 hPa SE 3.5 km/h 7.4 km/h 96 % 0 mm
17:07 20.3 °C 19.7 °C 1009 hPa SE 4.7 km/h 11.1 km/h 96 % 0 mm
17:12 20.3 °C 19.7 °C 1009 hPa SSW 7.2 km/h 16.7 km/h 96 % 0 mm
17:17 20.3 °C 19.7 °C 1009 hPa SSE 4.5 km/h 11.1 km/h 96 % 0 mm
17:22 20.3 °C 19.7 °C 1009 hPa South 3.7 km/h 14.8 km/h 96 % 0 mm
17:28 20.3 °C 19.7 °C 1009 hPa South 10.9 km/h 24.1 km/h 96 % 0 mm
17:33 20.3 °C 19.6 °C 1009 hPa SSE 11.6 km/h 25.7 km/h 96 % 0 mm
17:38 20.3 °C 19.6 °C 1009 hPa SE 10.5 km/h 18.5 km/h 96 % 0 mm
17:43 20.3 °C 19.6 °C 1009 hPa SSE 12.9 km/h 31.5 km/h 96 % 0 mm
17:48 20.3 °C 19.7 °C 1008.7 hPa South 12.6 km/h 22.2 km/h 96 % 0 mm
17:53 20.3 °C 19.7 °C 1009 hPa SSE 1.3 km/h 5.6 km/h 96 % 0 mm
17:58 20.4 °C 19.7 °C 1009 hPa SSE 7.7 km/h 14.5 km/h 96 % 0 mm
18:03 20.4 °C 19.7 °C 1008.7 hPa SE 9 km/h 18.5 km/h 96 % 0 mm
18:08 20.4 °C 19.7 °C 1009 hPa South 6.6 km/h 19.3 km/h 96 % 0 mm
18:13 20.4 °C 19.7 °C 1009 hPa South 1.9 km/h 11.1 km/h 96 % 0 mm
18:18 20.4 °C 19.7 °C 1009 hPa SSW 2.7 km/h 5.6 km/h 96 % 0 mm
18:23 20.4 °C 19.7 °C 1009 hPa South 5.3 km/h 7.4 km/h 96 % 0 mm
18:28 20.4 °C 19.7 °C 1009 hPa SE 9.8 km/h 27.8 km/h 96 % 0 mm
18:33 20.4 °C 19.7 °C 1009.4 hPa SSW 5.8 km/h 11.1 km/h 96 % 0 mm
18:38 20.4 °C 19.7 °C 1009.4 hPa SE 8.9 km/h 11.1 km/h 96 % 0 mm
18:43 20.4 °C 19.7 °C 1009.4 hPa SSW 1.8 km/h 7.4 km/h 96 % 0 mm
18:49 20.4 °C 19.7 °C 1009.4 hPa SSE 10.3 km/h 19.3 km/h 96 % 0 mm
18:54 20.4 °C 19.7 °C 1009.4 hPa SE 7.6 km/h 18.5 km/h 96 % 0 mm
18:59 20.4 °C 19.7 °C 1009.4 hPa SSW 4.7 km/h 18.5 km/h 96 % 0 mm
19:04 20.4 °C 19.7 °C 1009.4 hPa SSW 12.2 km/h 22.2 km/h 96 % 0 mm
19:09 20.3 °C 19.7 °C 1009 hPa SE 9 km/h 13 km/h 96 % 0 mm
19:14 20.3 °C 19.7 °C 1009.4 hPa SSW 7.2 km/h 14.8 km/h 96 % 0 mm
19:19 20.3 °C 19.6 °C 1009 hPa WSW 4.8 km/h 13 km/h 96 % 0 mm
19:24 20.3 °C 19.6 °C 1009 hPa SW 3.7 km/h 8 km/h 96 % 0 mm
19:29 20.3 °C 19.6 °C 1009.4 hPa SW 1.9 km/h 5.6 km/h 96 % 0 mm
19:34 20.3 °C 19.6 °C 1009.4 hPa SSW 4.7 km/h 9.7 km/h 96 % 0 mm
19:39 20.3 °C 19.6 °C 1009 hPa South 5 km/h 18.5 km/h 96 % 0 mm
19:44 20.2 °C 19.6 °C 1009 hPa SSW 5.6 km/h 9.3 km/h 96 % 0 mm
19:49 20.2 °C 19.6 °C 1009 hPa SW 1.4 km/h 5.6 km/h 96 % 0 mm
19:54 20.2 °C 19.5 °C 1009 hPa SSW 5.3 km/h 9.7 km/h 96 % 0 mm
19:59 20.1 °C 19.4 °C 1009 hPa SW 0.3 km/h 1.9 km/h 96 % 0 mm
20:04 20.1 °C 19.4 °C 1009 hPa SSE 0.6 km/h 5.6 km/h 96 % 0.25 mm
20:09 20.1 °C 19.4 °C 1009.7 hPa SW 7.2 km/h 9.3 km/h 96 % 0.25 mm
20:15 20 °C 19.3 °C 1008.7 hPa WSW 3.5 km/h 9.3 km/h 96 % 0.76 mm
20:20 19.9 °C 19.2 °C 1008.4 hPa SW 1.3 km/h 7.4 km/h 96 % 1.78 mm
20:25 19.8 °C 19.2 °C 1008.4 hPa SSW 3.2 km/h 7.4 km/h 96 % 3.3 mm
20:30 19.8 °C 19.1 °C 1008.4 hPa SSE 3.5 km/h 5.6 km/h 96 % 4.57 mm
20:31 19.8 °C 19.1 °C 1008.4 hPa South 3.2 km/h 11.3 km/h 96 % 0.51 mm
20:36 19.8 °C 19.1 °C 1008.4 hPa South 3.2 km/h 19.3 km/h 96 % 0.51 mm
20:41 19.7 °C 19.1 °C 1008.7 hPa South 4.8 km/h 19.3 km/h 96 % 0.51 mm
20:46 19.7 °C 19.2 °C 1008.4 hPa SSW 7.9 km/h 18.5 km/h 97 % 10.92 mm
20:51 19.7 °C 19.2 °C 1008.7 hPa SW 1.6 km/h 9.7 km/h 97 % 0.51 mm
20:56 19.7 °C 19.2 °C 1009 hPa SW 8 km/h 14.5 km/h 97 % 0.25 mm
21:01 19.7 °C 19.2 °C 1008.7 hPa South 7.6 km/h 22.2 km/h 97 % 16.51 mm
21:06 19.7 °C 19.2 °C 1009 hPa SW 9.7 km/h 22.5 km/h 97 % 0.25 mm
21:11 19.6 °C 19.1 °C 1009.4 hPa SW 4.8 km/h 16.1 km/h 97 % 0.25 mm
21:16 19.5 °C 19 °C 1009 hPa SW 4.8 km/h 16.1 km/h 97 % 0.25 mm
21:21 19.4 °C 18.7 °C 1009 hPa SW 3.2 km/h 14.5 km/h 96 % 0.51 mm
21:26 19.3 °C 18.7 °C 1009.4 hPa SSW 1.4 km/h 4.8 km/h 96 % 22.86 mm
21:31 19.3 °C 18.6 °C 1009.4 hPa Calm   6.4 km/h 96 % 0.25 mm
21:36 19.3 °C 18.8 °C 1009 hPa Calm   1.9 km/h 97 % 23.37 mm
21:41 19.3 °C 18.8 °C 1009 hPa Calm   6.4 km/h 97 % 0.25 mm
21:46 19.3 °C 18.8 °C 1009 hPa SW 1.6 km/h 3.2 km/h 97 % 22.1 mm
21:51 19.3 °C 18.8 °C 1009 hPa SW 3.2 km/h 6.4 km/h 97 % 0.51 mm
21:56 19.3 °C 18.8 °C 1009 hPa SW 3.2 km/h 9.7 km/h 97 % 0.51 mm
22:01 19.3 °C 18.8 °C 1008.4 hPa West 5.5 km/h 11.1 km/h 97 % 20.83 mm
22:06 19.3 °C 18.8 °C 1008.7 hPa WSW 3.2 km/h 11.3 km/h 97 % 0.25 mm
22:11 19.4 °C 18.9 °C 1008.7 hPa Calm   3.7 km/h 97 % 19.81 mm
22:16 19.4 °C 18.9 °C 1008.7 hPa SW 1.6 km/h 6.4 km/h 97 % 0.25 mm
22:21 19.5 °C 19 °C 1008.7 hPa SSW 3.2 km/h 8 km/h 97 % 0.25 mm
22:26 19.6 °C 19.2 °C 1008.4 hPa Calm   11.3 km/h 98 % 0.25 mm
22:31 19.6 °C 19.3 °C 1008.4 hPa South 3.2 km/h 6.4 km/h 98 % 0.25 mm
22:36 19.7 °C 19.2 °C 1008 hPa Calm   6.4 km/h 97 % 0.25 mm
22:41 19.7 °C 19.2 °C 1007.7 hPa SSW 3.2 km/h 6.4 km/h 97 % 0 mm
22:46 19.6 °C 19.1 °C 1007.7 hPa SW 1.6 km/h 6.4 km/h 97 % 0 mm
22:51 19.7 °C 19.2 °C 1008 hPa Calm   1.9 km/h 97 % 14.73 mm
22:56 19.7 °C 19.3 °C 1007.7 hPa Calm   4.8 km/h 98 % 0.25 mm
23:01 19.7 °C 19.2 °C 1007.7 hPa Calm   1.9 km/h 97 % 12.95 mm
23:06 19.7 °C 19.2 °C 1007.7 hPa SSW 3.2 km/h 7.4 km/h 97 % 11.68 mm
23:11 19.8 °C 19.4 °C 1007.7 hPa ESE 1.1 km/h 12.9 km/h 98 % 10.67 mm
23:16 19.8 °C 19.5 °C 1007.7 hPa SSE 4.5 km/h 13 km/h 98 % 9.91 mm
23:21 19.9 °C 19.6 °C 1007.7 hPa SW 0.5 km/h 3.7 km/h 98 % 8.64 mm
23:26 19.9 °C 19.6 °C 1007.7 hPa SW 3.1 km/h 9.3 km/h 98 % 7.37 mm
23:31 20 °C 19.7 °C 1007.7 hPa SSW 2.9 km/h 9.3 km/h 98 % 6.35 mm
23:36 20 °C 19.7 °C 1007.3 hPa West 0.8 km/h 3.7 km/h 98 % 5.08 mm
23:41 20 °C 19.7 °C 1007.3 hPa SW 4.2 km/h 7.4 km/h 98 % 4.32 mm
23:46 20.1 °C 19.7 °C 1007.7 hPa SSW 2.7 km/h 6.4 km/h 98 % 3.56 mm
23:51 20.1 °C 19.7 °C 1007.7 hPa SE 2.3 km/h 4.8 km/h 98 % 3.05 mm
23:56 20.1 °C 19.7 °C 1007.7 hPa SSW 0.6 km/h 3.7 km/h 98 % 2.29 mm
Crab Meadow Weather
Compliments of Weather Underground - 3 mb

Script developed by  Jim McMurry - jmcmurry@mwt.net Adapted for the template by  Wim van der Kuil - Leuven-Template.eu

Recycling: The average American uses seven trees a year in paper, wood, and other products made from trees. This amounts to about 2,000,000,000 trees per year!